カタログに戻る

COSMOS 1711

GLONASS

運用中ナビゲーションMEO
NORAD 16397·PAYLOAD·🇷🇺 Russia

打ち上げ Dec 24, 1985 から Baikonur Cosmodrome

Loading…

次のパス (今後24時間)

TLE

経年Source: Space-Track

元期: Aug 29, 2026, 04:34 UTC

1 16397U 85118B   26241.19063991 -.00000037  00000-0  00000+0 0  9992
2 16397  66.0234 322.0376 0009818 188.2149 218.5344  2.13101405316319

AllMySatでCOSMOS 1711をリアルタイム追跡

Download on the App Store